GPS BIIF-3

Last updated on Tue Jul 01 2025 00:02:33 GMT+0000 (Coordinated Universal Time)

1 38833U 12053A 25181.32431360 .00000054 00000+0 00000+0 0 9992 2 38833 53.5412 158.0097 0166738 60.8613 300.7694 2.00563197 92386
UTC large
Height (km)
Speed (km/s)
/
Latitude / Longitude
Inclination (degrees)
Orbital Period (minutes)
Azimuth
Elevation
Range (km)
Doppler Factor

Next 0 passes for location: London (51.5072 / 0.1276)

Sorry there are no passes over London.